Regional Weather Roundup
Issued by NWS

Home | Current Version | Previous Version | Graphics & Text | Print | Product List | Glossary On
Versions: 1 2 3 4 5 6 7 8 9 10 11 12 13 14 15 16 17 18 19 20 21 22 23 24 25 26 27 28 29 30 31 32 33 34 35 36 37 38 39 40 41 42 43 44 45 46 47 48 49 50
588
ASUS45 KSLC 260910
RWRUT

UTAH REGIONAL WEATHER ROUNDUP
NATIONAL WEATHER SERVICE SALT LAKE CITY UT
200 AM MST SUN FEB 26 2017

UTZ001>011-023>025-261000-

NORTHERN UTAH

CITY           SKY/WX    TMP DP  RH WIND       PRES   REMARKS
BRIGHAM CITY     N/A     23  15  71 E3        29.99S
HILL AFB       PTCLDY    20  12  72 E7        29.96S WCI  11
LOGAN          CLEAR     15   9  76 CALM      29.98S
OGDEN          PTCLDY    20  14  77 S9        29.96S WCI   9
SALT LAKE CITY PTCLDY    23  14  68 SE8       29.98S WCI  14
TOOELE VALLEY  CLEAR     21  16  79 S7        29.99S WCI  13
WENDOVER       CLEAR     21  14  73 CALM      29.97F
HEBER CITY     CLEAR      1  -2  85 CALM      29.95S
WEST JORDAN    PTCLDY    21  19  89 S3        29.98S

$$

UTZ011>015-024>027-261000-

CENTRAL/NORTHEAST UTAH

CITY           SKY/WX    TMP DP  RH WIND       PRES   REMARKS
PROVO AIRPORT  CLEAR     14   9  80 E5        30.01S WCI   6
MOAB/CANYONLAN PTCLDY    28  10  46 W9        29.94R WCI  19
DELTA          CLEAR     19  16  86 E3        29.97S
PRICE          PTCLDY    17  10  74 N8        29.90F WCI   7
RICHFIELD      PTCLDY    19  19 100 CALM      29.98S
ROOSEVELT      CLOUDY    14   5  67 CALM      29.96S
VERNAL         CLEAR      5  -2  72 CALM      29.93S

$$

UTZ013>016-019>022-027-261000-

SOUTHERN UTAH

CITY           SKY/WX    TMP DP  RH WIND       PRES   REMARKS
BRYCE CANYON   MOCLDY    12   8  84 W7        29.90R WCI   1
CEDAR CITY     MOCLDY    22  19  89 NW5       29.93S WCI  16
MILFORD        MOCLDY    25  21  85 W3        29.95S
ST GEORGE      SUNNY     35  21  56 CALM      29.97S
HANKSVILLE     CLEAR     23  12  63 CALM      29.98S
KANAB          CLEAR     23  19  86 E5        29.98R WCI  17
BLANDING       PTCLDY    26  18  71 NE6       29.96S WCI  19

$$

REGIONAL REPORTS     COLORADO/ARIZONA

CITY           SKY/WX    TMP DP  RH WIND       PRES   REMARKS
CRAIG, CO      CLOUDY    15   8  73 NE3       29.91R
GRAND JUNCTION CLEAR     24  11  57 NW5       29.93R WCI  18
RIFLE, CO      CLOUDY    18  12  77 SE5       29.94R WCI  11
MONTROSE, CO   PTCLDY    25  16  68 SE10      29.93S WCI  15
CORTEZ, CO     CLOUDY    27  20  75 SE3       29.90R
COLORADO CITY    N/A     23  19  86 CALM      29.96S
PAGE, AZ       CLEAR     34  14  43 SE6       29.92R WCI  29
GRAND CANYON   MOCLDY    25  20  81 SW3       29.93S
KINGMAN, AZ    CLOUDY    43  15  32 CALM      29.92S
FLAGSTAFF, AZ  CLOUDY    27  21  78 NW3       29.93F

$$

REGIONAL REPORTS    NEVADA/IDAHO/WYOMING

CITY           SKY/WX    TMP DP  RH WIND       PRES   REMARKS
LAS VEGAS, NV  PTCLDY    42  24  49 SW5       29.91F
ELY, NY        CLEAR      6   2  83 S10       29.92F WCI  -9
ELKO, NV       CLEAR     19  13  77 CALM      29.94F
POCATELLO, ID  CLOUDY    19   8  62 S12       29.92F WCI   7
BURLEY, ID     CLEAR     23  11  60 SW13      29.93S WCI  11
FORT BRIDGER,    N/A      7   1  78 SW13      29.87F WCI  -9
EVANSTON, WY   CLOUDY     4  -1  80 SW10      29.86R WCI -11
ROCK SPRINGS,  CLOUDY     7   2  80 W20       29.83F WCI -13
KEMMERER, WY     N/A      1  -4  78 SW5       29.83S WCI  -8

$$




USA.gov is the U.S. government's official web portal to all federal, state and local government web resources and services.